Weather History for Oxford, NC

Change the Weather History Date:

Monday, August 26, 2013

  Actual Average (KTDF) Record (KTDF)
Temperature  
Mean Temperature 66 °F -  
Max Temperature 81 °F 86 °F 97 °F (1975)
Min Temperature 52 °F 62 °F 50 °F (2013)
Cooling Degree Days 2    
Growing Degree Days 16 (Base 50)    
Moisture  
Dew Point 54 °F    
Average Humidity 66    
Maximum Humidity 95    
Minimum Humidity 29    
Precipitation  
Precipitation 0.00 in - - ()
Sea Level Pressure  
Sea Level Pressure 30.24 in    
Wind  
Wind Speed 2 mph (SW)    
Max Wind Speed 7 mph    
Max Gust Speed -    
Visibility 10 miles    
Events      
Averages and records for this station are not official NWS values.
T = Trace of Precipitation, MM = Missing Value Source: NWS Daily Summary

Daily Weather History Graph

Daily Weather History Graph

Search for Another Location

Airport:

Trip Planner

Search our weather history database for the weather conditions in past years. The results will help you decide how hot, cold, wet, or windy it might be!

Date:

Astronomy

Aug. 26, 2013 Rise Set
Actual Time 6:40 AM EDT 7:50 PM EDT
Civil Twilight 6:14 AM EDT 8:16 PM EDT
Nautical Twilight 5:42 AM EDT 8:48 PM EDT
Astronomical Twilight 5:09 AM EDT 9:21 PM EDT
Moon 11:11 PM EDT (8/26) 12:29 PM EDT (8/26)
Length of Visible Light 14h 02m
Length of Day
13h 09m
Waning Gibbous, 67% of the Moon is Illuminated
Aug 26
Waning Gibbous
Aug 28
Last Quarter
Sep 5
New
Sep 12
First Quarter
Sep 19
Full

Hourly Weather History & Observations

Time (EDT) Temp. Heat Index Dew Point Humidity Pressure Visibility Wind Dir Wind Speed Gust Speed Precip Events Conditions
12:15 AM 63.7 °F - 53.6 °F 70% 30.34 in 10.0 mi SE 4.6 mph - N/A   Clear
12:35 AM 64.2 °F - 52.9 °F 67% 30.35 in 10.0 mi SE 3.5 mph - N/A   Clear
12:55 AM 63.5 °F - 52.9 °F 68% 30.35 in 10.0 mi SSE 3.5 mph - N/A   Clear
1:15 AM 63.1 °F - 52.7 °F 69% 30.34 in 10.0 mi SSE 3.5 mph - N/A   Clear
1:35 AM 62.8 °F - 52.7 °F 70% 30.34 in 10.0 mi Calm Calm - N/A   Clear
1:55 AM 62.1 °F - 52.7 °F 71% 30.33 in 10.0 mi SE 3.5 mph - N/A   Clear
2:15 AM 59.4 °F - 53.1 °F 80% 30.33 in 10.0 mi Calm Calm - N/A   Clear
2:35 AM 57.9 °F - 52.9 °F 83% 30.32 in 10.0 mi Calm Calm - N/A   Clear
2:55 AM 57.7 °F - 53.4 °F 85% 30.32 in 10.0 mi Calm Calm - N/A   Clear
3:15 AM 57.0 °F - 54.0 °F 89% 30.31 in 10.0 mi Calm Calm - N/A   Clear
3:35 AM 58.1 °F - 54.0 °F 86% 30.31 in 10.0 mi Calm Calm - N/A   Clear
3:55 AM 56.3 °F - 53.6 °F 91% 30.31 in 10.0 mi Calm Calm - N/A   Clear
4:15 AM 55.2 °F - 52.7 °F 91% 30.30 in 10.0 mi Calm Calm - N/A   Clear
4:35 AM 54.9 °F - 53.2 °F 94% 30.29 in 10.0 mi SW 3.5 mph - N/A   Clear
4:55 AM 53.8 °F - 51.8 °F 93% 30.29 in 10.0 mi Calm Calm - N/A   Clear
5:15 AM 54.9 °F - 53.2 °F 94% 30.29 in 10.0 mi Calm Calm - N/A   Clear
5:35 AM 53.8 °F - 52.0 °F 94% 30.29 in 10.0 mi SW 3.5 mph - N/A   Clear
5:55 AM 54.0 °F - 52.3 °F 94% 30.29 in 10.0 mi Calm Calm - N/A   Clear
6:15 AM 53.1 °F - 51.6 °F 95% 30.29 in 10.0 mi Calm Calm - N/A   Clear
6:35 AM 53.8 °F - 52.2 °F 94% 30.29 in 10.0 mi Calm Calm - N/A   Clear
6:55 AM 52.9 °F - 51.4 °F 95% 30.29 in 10.0 mi Calm Calm - N/A   Clear
7:15 AM 54.5 °F - 53.1 °F 95% 30.30 in 10.0 mi Calm Calm - N/A   Clear
7:35 AM 56.5 °F - 54.7 °F 94% 30.30 in 10.0 mi Calm Calm - N/A   Clear
7:55 AM 58.6 °F - 56.5 °F 93% 30.30 in 10.0 mi Calm Calm - N/A   Clear
8:15 AM 61.2 °F - 57.4 °F 87% 30.31 in 10.0 mi Calm Calm - N/A   Clear
8:35 AM 62.8 °F - 57.7 °F 84% 30.31 in 10.0 mi Calm Calm - N/A   Clear
8:55 AM 64.6 °F - 57.9 °F 79% 30.31 in 10.0 mi West 3.5 mph - N/A   Clear
9:15 AM 65.8 °F - 59.0 °F 79% 30.31 in 10.0 mi Calm Calm - N/A   Clear
9:35 AM 67.5 °F - 58.8 °F 74% 30.31 in 10.0 mi SW 5.8 mph - N/A   Clear
9:55 AM 69.3 °F - 59.2 °F 70% 30.32 in 10.0 mi WSW 3.5 mph - N/A   Clear
10:15 AM 70.5 °F - 58.6 °F 66% 30.31 in 7.0 mi SW 3.5 mph - N/A   Clear
10:35 AM 71.8 °F - 58.1 °F 62% 30.31 in 10.0 mi WSW 3.5 mph - N/A   Clear
10:55 AM 72.5 °F - 57.0 °F 58% 30.31 in 10.0 mi Calm Calm - N/A   Clear
11:15 AM 74.3 °F - 56.7 °F 54% 30.30 in 10.0 mi Calm Calm - N/A   Clear
11:35 AM 75.4 °F - 56.7 °F 52% 30.30 in 10.0 mi Calm Calm - N/A   Clear
11:55 AM 76.3 °F - 57.0 °F 51% 30.29 in 10.0 mi Calm Calm - N/A   Clear
12:15 PM 77.0 °F - 54.7 °F 46% 30.28 in 10.0 mi Calm Calm - N/A   Clear
12:35 PM 77.5 °F - 52.7 °F 42% 30.27 in 10.0 mi West 3.5 mph - N/A   Clear
12:55 PM 77.7 °F - 53.2 °F 43% 30.26 in 10.0 mi South 3.5 mph - N/A   Clear
1:15 PM 78.6 °F - 52.3 °F 40% 30.25 in 10.0 mi Calm Calm - N/A   Clear
1:35 PM 78.8 °F - 53.4 °F 41% 30.25 in 10.0 mi Calm Calm - N/A   Clear
1:55 PM 78.8 °F - 52.3 °F 40% 30.24 in 10.0 mi Calm Calm - N/A   Clear
2:15 PM 80.1 °F 79.9 °F 53.1 °F 39% 30.23 in 10.0 mi NW 4.6 mph - N/A   Clear
2:35 PM 80.4 °F 80.1 °F 53.1 °F 39% 30.22 in 10.0 mi Calm Calm - N/A   Clear
2:55 PM 80.6 °F - 49.6 °F 34% 30.21 in 10.0 mi West 3.5 mph - N/A   Clear
3:15 PM 81.9 °F - 52.7 °F 36% 30.20 in 10.0 mi SSW 5.8 mph - N/A   Clear
3:35 PM 81.7 °F - 47.8 °F 31% 30.19 in 10.0 mi SW 5.8 mph - N/A   Clear
3:55 PM 81.5 °F - 47.7 °F 31% 30.18 in 10.0 mi WSW 5.8 mph - N/A   Clear
4:15 PM 81.9 °F - 47.8 °F 30% 30.17 in 10.0 mi SW 6.9 mph - N/A   Clear
4:35 PM 81.7 °F - 46.2 °F 29% 30.17 in 10.0 mi SW 4.6 mph - N/A   Clear
4:55 PM 81.5 °F - 50.7 °F 34% 30.16 in 10.0 mi SW 5.8 mph - N/A   Clear
5:15 PM 81.5 °F - 51.4 °F 35% 30.16 in 10.0 mi South 5.8 mph - N/A   Clear
5:35 PM 80.8 °F - 50.7 °F 35% 30.16 in 10.0 mi SSW 4.6 mph - N/A   Clear
5:55 PM 80.6 °F - 52.5 °F 38% 30.16 in 10.0 mi West 4.6 mph - N/A   Clear
6:15 PM 79.9 °F - 52.2 °F 38% 30.15 in 10.0 mi West 4.6 mph - N/A   Clear
6:35 PM 79.2 °F - 51.4 °F 38% 30.14 in 10.0 mi Calm Calm - N/A   Clear
6:55 PM 78.1 °F - 53.4 °F 42% 30.13 in 10.0 mi WSW 3.5 mph - N/A   Clear
7:15 PM 76.3 °F - 54.9 °F 47% 30.13 in 10.0 mi WSW 3.5 mph - N/A   Clear
7:35 PM 74.5 °F - 56.5 °F 53% 30.13 in 10.0 mi Calm Calm - N/A   Clear
7:55 PM 72.9 °F - 57.4 °F 58% 30.13 in 10.0 mi Calm Calm - N/A   Clear
8:15 PM 70.5 °F - 58.5 °F 66% 30.13 in 10.0 mi Calm Calm - N/A   Clear
8:35 PM 69.3 °F - 57.2 °F 65% 30.13 in 10.0 mi Calm Calm - N/A   Clear
8:55 PM 67.3 °F - 59.4 °F 76% 30.13 in 10.0 mi Calm Calm - N/A   Clear
9:15 PM 67.1 °F - 59.7 °F 77% 30.12 in 10.0 mi SSW 3.5 mph - N/A   Clear
9:35 PM 65.3 °F - 59.4 °F 81% 30.12 in 10.0 mi SSW 4.6 mph - N/A   Clear
9:55 PM 66.4 °F - 57.9 °F 74% 30.12 in 10.0 mi SW 3.5 mph - N/A   Clear
10:15 PM 64.8 °F - 58.1 °F 79% 30.13 in 10.0 mi SW 3.5 mph - N/A   Clear
10:35 PM 64.9 °F - 57.6 °F 77% 30.13 in 10.0 mi SW 3.5 mph - N/A   Clear
10:55 PM 64.2 °F - 58.1 °F 80% 30.13 in 10.0 mi SW 3.5 mph - N/A   Clear
11:15 PM 62.8 °F - 59.0 °F 87% 30.14 in 10.0 mi SW 3.5 mph - N/A   Clear
11:35 PM 62.6 °F - 59.5 °F 90% 30.14 in 10.0 mi SW 4.6 mph - N/A   Clear
11:55 PM 63.0 °F - 59.0 °F 87% 30.13 in 10.0 mi SW 4.6 mph - N/A   Clear